Agadir Al Massira, Morocco

9:34 PM WET on December 16, 2017 (GMT +0000)
Agadir Al Massira

Weather History for GMAD - August, 2013

Change the Weather History Date:

Sunday, August 25, 2013

  Actual Average Record
Temperature  
Mean Temperature 76 °F -  
Max Temperature 83 °F - - ()
Min Temperature 68 °F - - ()
Cooling Degree Days 10    
Growing Degree Days 26 (Base 50)    
Moisture  
Dew Point 63 °F    
Average Humidity 71    
Maximum Humidity 88    
Minimum Humidity 50    
Precipitation  
Precipitation 0.00 in - - ()
Sea Level Pressure  
Sea Level Pressure 29.91 in    
Wind  
Wind Speed 4 mph ()    
Max Wind Speed 14 mph    
Max Gust Speed -    
Visibility 5.8 miles    
Events      
T = Trace of Precipitation, MM = Missing Value Source: Averaged Metar Reports

Daily Weather History Graph

Daily Weather History Graph

Search for Another Location

Airport or City:

Trip Planner

Search our weather history database for the weather conditions in past years. The results will help you decide how hot, cold, wet, or windy it might be!

Date:

Astronomy

Aug. 25, 2013 Rise Set
Actual Time 7:10 AM WEST 8:08 PM WEST
Civil Twilight 6:45 AM WEST 8:33 PM WEST
Nautical Twilight 6:16 AM WEST 9:02 PM WEST
Astronomical Twilight 5:46 AM WEST 9:32 PM WEST
Moon 10:57 PM WEST (8/25) 11:34 AM WEST (8/25)
Length of Visible Light 13h 47m
Length of Day
12h 58m
Waning Gibbous, 78% of the Moon is Illuminated
Aug 25
Waning Gibbous
Aug 28
Last Quarter
Sep 5
New
Sep 12
First Quarter
Sep 19
Full

Hourly Weather History & Observations

Time (WEST) Temp. Heat Index Dew Point Humidity Pressure Visibility Wind Dir Wind Speed Gust Speed Precip Events Conditions
12:00 AM 69.8 °F - 64.4 °F 83% 29.92 in - Calm Calm - N/A   Clear
1:00 AM 70 °F - 64 °F 74% 29.94 in 6 mi Calm Calm - -   Mostly Cloudy
1:00 AM 69.8 °F - 64.4 °F 83% 29.92 in 6.2 mi Calm Calm - N/A   Scattered Clouds
2:00 AM 69.8 °F - 64.4 °F 83% 29.92 in 6.2 mi South 3.5 mph - N/A   Scattered Clouds
3:00 AM 68.0 °F - 62.6 °F 83% 29.92 in 6.2 mi Calm Calm - N/A   Unknown
4:00 AM 68.0 °F - 64.4 °F 88% 29.92 in 6.2 mi South 4.6 mph - N/A   Scattered Clouds
5:00 AM 68.0 °F - 62.6 °F 83% 29.92 in 6.2 mi Calm Calm - N/A   Scattered Clouds
6:00 AM 68.0 °F - 64.4 °F 88% 29.92 in 5.0 mi SSW 5.8 mph - N/A   Mostly Cloudy
7:00 AM 68.0 °F - 62.6 °F 83% 29.92 in 5.0 mi South 6.9 mph - N/A   Mostly Cloudy
8:00 AM 68.0 °F - 64.4 °F 88% 29.92 in - South 5.8 mph - N/A   Mostly Cloudy
9:00 AM 68.0 °F - 64.4 °F 88% 29.92 in 5.0 mi South 5.8 mph - N/A   Mostly Cloudy
10:00 AM 71 °F - 63 °F 69% 29.95 in 5 mi Calm Calm - -   Overcast
10:00 AM 71.6 °F - 62.6 °F 73% 29.95 in - Calm Calm - N/A   Mostly Cloudy
11:00 AM 71.6 °F - 62.6 °F 73% 29.95 in 5.0 mi Calm Calm - N/A   Mostly Cloudy
12:00 PM 78.8 °F - 62.6 °F 57% 29.92 in 6.2 mi Calm Calm - N/A   Scattered Clouds
1:00 PM 80.6 °F 81.8 °F 62.6 °F 54% 29.92 in 6.2 mi SSW 5.8 mph - N/A   Scattered Clouds
2:00 PM 82.4 °F 83.4 °F 62.6 °F 51% 29.89 in - WSW 8.1 mph - N/A   Clear
3:00 PM 82.4 °F 83.4 °F 62.6 °F 51% 29.89 in - SW 10.4 mph - N/A   Clear
4:00 PM 79 °F - 64 °F 50% 29.88 in 6 mi WSW 11.5 mph - -   Scattered Clouds
4:00 PM 78.8 °F - 64.4 °F 61% 29.89 in 6.2 mi WSW 11.5 mph - N/A   Partly Cloudy
5:00 PM 78.8 °F - 62.6 °F 57% 29.86 in 6.2 mi WSW 12.7 mph - N/A   Partly Cloudy
6:00 PM 75.2 °F - 60.8 °F 61% 29.86 in 6.2 mi SW 13.8 mph - N/A   Partly Cloudy
7:00 PM 73 °F - 61 °F 58% 29.88 in 6 mi WSW 12.7 mph - -   Scattered Clouds
7:00 PM 73.4 °F - 60.8 °F 65% 29.86 in 6.2 mi WSW 11.5 mph - N/A   Partly Cloudy
8:00 PM - - - N/A% - 6.2 mi SW 10.4 mph - N/A   Partly Cloudy
9:00 PM 69.8 °F - 62.6 °F 78% 29.89 in 5.0 mi SW 6.9 mph - N/A   Overcast
10:00 PM 70 °F - 61 °F 67% 29.92 in 6 mi SW 4.6 mph - -   Overcast
10:00 PM 69.8 °F - 60.8 °F 73% 29.92 in 6.2 mi SW 4.6 mph - N/A   Overcast
11:00 PM 69.8 °F - 60.8 °F 73% 29.92 in 5.0 mi South 4.6 mph - N/A   Overcast